星链-11604 (STARLINK-11604)

导读

STARLINK-11604是美国SpaceX公司星链星座的第二代卫星,于2025年3月3日发射入轨,运行在近地低轨道。作为全球规模最大卫星互联网星座的组成部分,它配备激光星间链路与增强型相控阵天线,可提供高速低延迟宽带服务,助力填补偏远地区数字鸿沟,同时星链星座也持续引发太空碎片和天文观测影响的争议。

基本信息
目录编号:
63133
目录名称:
STARLINK-11604
国际标识:
2025-043B
轨道中心:
EARTH
卫星名称:
星链-11604
卫星全名:
星链-11604 (STARLINK-11604)
卫星状态:
在轨 (已飞行468 天)
发射日期:
2025-03-03 UTC
国别 :
美国 (US)
星等 :
--
轨道信息
数据来源 国际轨道数据
星历时间: 2026-06-14T15:28:02+0800
9小时前
查看轨道信息
半长轴: 6734.44km
偏心率: 0.0001916
轨道倾角: 42.999°
近地点辐角 265.061°
升交点赤经 28.723°
平近点角 95.004°
近地点: 355.012km
远地点: 357.594km
周期: 91.667分钟
每日圈数: 15.709075
详细信息
固有亮度:
5
最大亮度:
2.5
卫星平台:
Starlink V1.0
覆盖范围:
全球
运营商:
太空探索技术公司
运营商所在国:
美国
制造商(研发单位):
太空探索技术公司
制造商所在国:
美国
使用方式:
暂无
卫星简介
Starlink 计划是 SpaceX 推出的全球卫星互联网项目,通过发射低轨道卫星,为全球尤其是偏远地区提供高速、低延迟的互联网服务。自 2019 年起,Starlink 已部署数千颗卫星,旨在缩小全球数字鸿沟,推动互联网普及。该项目还为军事、航空等行业提供通信支持,带来广泛经济效益。
2D轨道图
3D轨道图
轨道高度分析图
轨道倾角分析图
轨道综合分析图
查看轨道综合分析图